Weather History for KMVY - August, 2012

Change the Weather History Date:

Monday, August 13, 2012

  Actual Average Record
Temperature  
Mean Temperature 76 °F -  
Max Temperature 82 °F 77 °F 87 °F (2002)
Min Temperature 69 °F 61 °F 42 °F (2006)
Cooling Degree Days 10    
Growing Degree Days 26 (Base 50)    
Moisture  
Dew Point 68 °F    
Average Humidity 82    
Maximum Humidity 94    
Minimum Humidity 58    
Precipitation  
Precipitation 0.00 in - - ()
Sea Level Pressure  
Sea Level Pressure 29.94 in    
Wind  
Wind Speed 5 mph (SW)    
Max Wind Speed 15 mph    
Max Gust Speed 20 mph    
Visibility 6 miles    
Events Fog    
Averages and records for this station are not official NWS values.
T = Trace of Precipitation, MM = Missing Value Source: NWS Daily Summary

Daily Weather History Graph

Daily Weather History Graph

Search for Another Location

Airport or City:

Trip Planner

Search our weather history database for the weather conditions in past years. The results will help you decide how hot, cold, wet, or windy it might be!

Date:

Astronomy

Aug. 13, 2012 Rise Set
Actual Time 5:49 AM EDT 7:43 PM EDT
Civil Twilight 5:20 AM EDT 8:13 PM EDT
Nautical Twilight 4:43 AM EDT 8:49 PM EDT
Astronomical Twilight 4:04 AM EDT 9:29 PM EDT
Moon 1:48 AM EDT (8/13) 4:54 PM EDT (8/13)
Length of Visible Light 14h 53m
Length of Day
13h 53m
Waning Crescent, 16% of the Moon is Illuminated
Aug 13
Waning Crescent
Aug 17
New
Aug 24
First Quarter
Aug 31
Full
Sep 8
Last Quarter

Hourly Weather History & Observations

Time (EDT) Temp. Heat Index Dew Point Humidity Pressure Visibility Wind Dir Wind Speed Gust Speed Precip Events Conditions
12:53 AM 75.9 °F - 73.0 °F 91% 29.94 in 10.0 mi SW 6.9 mph - N/A   Overcast
1:53 AM 75.0 °F - 73.0 °F 94% 29.94 in 9.0 mi SW 5.8 mph - N/A   Overcast
2:53 AM 75.0 °F - 72.0 °F 90% 29.93 in 8.0 mi SW 6.9 mph - N/A   Overcast
3:53 AM 73.0 °F - 71.1 °F 93% 29.92 in 2.5 mi Calm Calm - N/A   Mostly Cloudy
4:00 AM 73.4 °F - 69.8 °F 88% 29.92 in 1.8 mi SW 3.5 mph - N/A   Scattered Clouds
4:18 AM 71.6 °F - 69.8 °F 94% 29.92 in 1.0 mi SW 3.5 mph - N/A   Mist
4:27 AM 71.6 °F - 69.8 °F 94% 29.92 in 2.0 mi Calm Calm - N/A   Partly Cloudy
4:35 AM 71.6 °F - 69.8 °F 94% 29.93 in 5.0 mi SW 3.5 mph - N/A   Partly Cloudy
4:53 AM 72.0 °F - 69.1 °F 91% 29.93 in 5.0 mi SW 3.5 mph - N/A   Clear
5:14 AM 69.8 °F - 68.0 °F 94% 29.93 in 1.5 mi SW 3.5 mph - N/A   Clear
5:17 AM 69.8 °F - 68.0 °F 94% 29.93 in 0.8 mi SW 3.5 mph - N/A   Mist
5:27 AM 71.6 °F - 69.8 °F 94% 29.93 in 1.2 mi SW 3.5 mph - N/A   Partly Cloudy
5:30 AM 71.6 °F - 69.8 °F 94% 29.93 in 3.0 mi SW 3.5 mph - N/A   Partly Cloudy
5:34 AM 71.6 °F - 69.8 °F 94% 29.93 in 1.5 mi SW 3.5 mph - N/A   Partly Cloudy
5:38 AM 69.8 °F - 68.0 °F 94% 29.93 in 0.8 mi SSW 3.5 mph - N/A   Mist
5:53 AM 69.1 °F - 66.9 °F 93% 29.94 in 0.2 mi Calm Calm - N/A Fog Fog
6:08 AM 69.8 °F - 66.2 °F 88% 29.94 in 0.2 mi Calm Calm - N/A Fog Fog
6:16 AM 69.8 °F - 66.2 °F 88% 29.95 in 0.2 mi Calm Calm - N/A Fog Fog
6:39 AM 69.8 °F - 68.0 °F 94% 29.95 in 1.0 mi Calm Calm - N/A   Mist
6:41 AM 71.6 °F - 68.0 °F 88% 29.95 in 2.5 mi Calm Calm - N/A   Clear
6:48 AM 71.6 °F - 69.8 °F 94% 29.96 in 7.0 mi Calm Calm - N/A   Clear
6:53 AM 72.0 °F - 69.1 °F 91% 29.95 in 8.0 mi SSW 3.5 mph - N/A   Clear
7:53 AM 73.0 °F - 69.1 °F 87% 29.96 in 10.0 mi WSW 4.6 mph - N/A   Clear
8:53 AM 79.0 °F - 64.9 °F 62% 29.96 in 10.0 mi West 8.1 mph - N/A   Clear
9:53 AM 80.1 °F 81.9 °F 64.9 °F 60% 29.96 in 10.0 mi WSW 8.1 mph - N/A   Clear
10:53 AM 82.0 °F 84.1 °F 66.0 °F 58% 29.96 in 10.0 mi West 9.2 mph - N/A   Clear
11:53 AM 82.0 °F 84.5 °F 66.9 °F 60% 29.94 in 10.0 mi SW 11.5 mph 18.4 mph N/A   Clear
12:53 PM 82.0 °F 85.5 °F 69.1 °F 65% 29.93 in 10.0 mi SW 11.5 mph - N/A   Clear
1:53 PM 82.0 °F 84.5 °F 66.9 °F 60% 29.93 in 10.0 mi WSW 6.9 mph 16.1 mph N/A   Clear
2:53 PM 82.9 °F 85.8 °F 68.0 °F 60% 29.92 in 10.0 mi SSW 12.7 mph - N/A   Clear
3:53 PM 80.1 °F 81.9 °F 64.9 °F 60% 29.92 in 10.0 mi SW 12.7 mph - N/A   Clear
4:53 PM 79.0 °F - 68.0 °F 69% 29.93 in 10.0 mi WSW 15.0 mph 19.6 mph N/A   Clear
5:53 PM 79.0 °F - 68.0 °F 69% 29.93 in 10.0 mi SW 10.4 mph 17.3 mph N/A   Clear
6:53 PM 77.0 °F - 66.9 °F 71% 29.93 in 10.0 mi WSW 8.1 mph - N/A   Clear
7:53 PM 73.9 °F - 66.0 °F 76% 29.94 in 10.0 mi WSW 6.9 mph - N/A   Clear
8:53 PM 73.9 °F - 66.0 °F 76% 29.94 in 10.0 mi WSW 6.9 mph - N/A   Clear
9:53 PM 73.9 °F - 64.9 °F 73% 29.95 in 10.0 mi WSW 6.9 mph - N/A   Clear
10:53 PM 72.0 °F - 66.0 °F 81% 29.94 in 10.0 mi WSW 5.8 mph - N/A   Clear
11:53 PM 72.0 °F - 66.9 °F 84% 29.95 in 10.0 mi WSW 5.8 mph - N/A   Clear